Weather History for Lufkin, TX

Change the Weather History Date:

Friday, August 30, 2013

  Actual Average Record
Temperature  
Mean Temperature 86 °F 82 °F  
Max Temperature 98 °F 93 °F 106 °F (2000)
Min Temperature 73 °F 70 °F 58 °F (1986)
Degree Days  
Heating Degree Days 0 0  
Month to date heating degree days 0 0  
Since 1 June heating degree days 0 0  
Since 1 July heating degree days 0 0  
Cooling Degree Days 21 17  
Month to date cooling degree days 574 533  
Year to date cooling degree days 2147 2004  
Since 1 June cooling degree days 1633 1535  
Growing Degree Days 35 (Base 50)    
Moisture  
Dew Point 70 °F    
Average Humidity 67    
Maximum Humidity 100    
Minimum Humidity 33    
Precipitation  
Precipitation 0.00 in 0.11 in 4.66 in (1933)
Month to date precipitation 1.17 3.22  
Year to date precipitation 25.90 30.47  
Snow  
Snow 0.00 in - - ()
Month to date snowfall 0.0  
Since 1 June snowfall 0.0  
Since 1 July snowfall 0.0  
Snow Depth 0.00 in    
Sea Level Pressure  
Sea Level Pressure 29.95 in    
Wind  
Wind Speed 4 mph (SSE)    
Max Wind Speed 14 mph    
Max Gust Speed 20 mph    
Visibility 8 miles    
Events      
T = Trace of Precipitation, MM = Missing Value Source: NWS Daily Summary

Daily Weather History Graph

Daily Weather History Graph

Search for Another Location

Airport:

Trip Planner

Search our weather history database for the weather conditions in past years. The results will help you decide how hot, cold, wet, or windy it might be!

Date:

Astronomy

Aug. 30, 2013 Rise Set
Actual Time 6:53 AM CDT 7:44 PM CDT
Civil Twilight 6:29 AM CDT 8:09 PM CDT
Nautical Twilight 5:59 AM CDT 8:38 PM CDT
Astronomical Twilight 5:29 AM CDT 9:08 PM CDT
Moon 1:44 AM CDT (8/30) 3:49 PM CDT (8/30)
Length of Visible Light 13h 40m
Length of Day
12h 50m
Waning Crescent, 29% of the Moon is Illuminated
Aug 30
Waning Crescent
Sep 5
New
Sep 12
First Quarter
Sep 19
Full
Sep 26
Last Quarter

Hourly Weather History & Observations

Time (CDT) Temp. Heat Index Dew Point Humidity Pressure Visibility Wind Dir Wind Speed Gust Speed Precip Events Conditions
12:53 AM 77.0 °F - 72.0 °F 84% 29.98 in 9.0 mi SE 3.5 mph - N/A   Clear
1:53 AM 75.9 °F - 73.0 °F 91% 29.98 in 8.0 mi SE 3.5 mph - N/A   Clear
2:53 AM 75.0 °F - 73.9 °F 96% 29.98 in 7.0 mi SE 3.5 mph - N/A   Clear
3:53 AM 75.9 °F - 75.0 °F 97% 29.98 in 6.0 mi SSE 4.6 mph - N/A   Clear
4:53 AM 73.9 °F - 73.9 °F 100% 29.99 in 4.0 mi ESE 3.5 mph - N/A   Clear
5:53 AM 73.9 °F - 73.9 °F 100% 30.00 in 4.0 mi SE 4.6 mph - N/A   Clear
6:53 AM 73.0 °F - 73.0 °F 100% 30.01 in 3.0 mi SE 3.5 mph - N/A   Clear
7:06 AM 73.4 °F - 73.4 °F 100% 30.02 in 2.5 mi Calm Calm - N/A   Clear
7:30 AM 73.4 °F - 73.4 °F 100% 30.02 in 3.0 mi Calm Calm - N/A   Clear
7:53 AM 75.0 °F - 75.0 °F 100% 30.01 in 4.0 mi SSE 3.5 mph - N/A   Clear
8:53 AM 79.0 °F - 75.9 °F 90% 30.01 in 8.0 mi Calm Calm - N/A   Clear
9:53 AM 82.9 °F 88.8 °F 73.0 °F 72% 30.01 in 10.0 mi Variable 4.6 mph - N/A   Clear
10:53 AM 87.1 °F 93.6 °F 72.0 °F 61% 30.00 in 10.0 mi Calm Calm - N/A   Clear
11:53 AM 91.0 °F 97.6 °F 71.1 °F 52% 29.99 in 10.0 mi South 5.8 mph - N/A   Clear
12:53 PM 93.0 °F 97.4 °F 68.0 °F 44% 29.96 in 10.0 mi Variable 3.5 mph - N/A   Partly Cloudy
1:53 PM 96.1 °F 99.3 °F 66.0 °F 37% 29.95 in 10.0 mi South 6.9 mph - N/A   Partly Cloudy
2:53 PM 95.0 °F 96.0 °F 63.0 °F 34% 29.92 in 10.0 mi Calm Calm - N/A   Clear
3:53 PM 97.0 °F 99.3 °F 64.0 °F 34% 29.89 in 10.0 mi Calm Calm - N/A   Clear
4:53 PM 95.0 °F 96.0 °F 63.0 °F 34% 29.88 in 10.0 mi Calm Calm - N/A   Clear
5:53 PM 97.0 °F 98.3 °F 63.0 °F 32% 29.87 in 10.0 mi Calm Calm - N/A   Clear
6:53 PM 95.0 °F 97.0 °F 64.0 °F 36% 29.87 in 10.0 mi Calm Calm - N/A   Clear
7:53 PM 88.0 °F 90.7 °F 66.9 °F 49% 29.87 in 10.0 mi Calm Calm - N/A   Clear
8:53 PM 87.1 °F 91.3 °F 69.1 °F 55% 29.88 in 10.0 mi SE 9.2 mph - N/A   Clear
9:53 PM 84.9 °F 91.4 °F 73.0 °F 67% 29.90 in 10.0 mi South 12.7 mph - N/A   Clear
10:53 PM 82.0 °F 86.7 °F 72.0 °F 71% 29.91 in 10.0 mi South 8.1 mph - N/A   Clear
11:53 PM 80.1 °F 83.8 °F 72.0 °F 76% 29.91 in 10.0 mi South 5.8 mph - N/A   Clear